Location: Baia Mare
(47.6567°N, 23.5850°E)
Time: 17:42:24
(UTC+02:00)

ISS - Pass Details

Date: 05 February 2018
Orbit: 403 x 407 km, 51.6° (Epoch: 21 February)

Event Time Altitude Azimuth Distance (km) Brightness Sun altitude
Rises 19:12:59 0° 290° (WNW) 2,321 1.2 -17.1°
Reaches altitude 10° 19:15:06 10° 296° (WNW) 1,461 -0.1 -17.5°
Maximum altitude 19:18:17 47° 12° (NNE) 544 -3.4 -18.0°
Enters shadow 19:18:31 46° 27° (NNE) 552 -3.4 -18.1°
